Regional Weather Roundup
Issued by NWS Goodland, KS

Home | Current Version | Previous Version | Graphics & Text | Print | Product List | Glossary On
Versions: 1 2 3 4 5 6 7 8 9 10 11 12 13 14 15 16 17 18 19 20 21 22 23 24 25 26 27 28 29 30 31 32 33 34 35 36 37 38 39 40 41 42 43 44 45 46 47 48 49 50
000
ASUS43 KGLD 271159
RWRGLD

GOODLAND FORECAST AREA HOURLY WEATHER ROUNDUP
NATIONAL WEATHER SERVICE GOODLAND KS
600 AM MDT WED AUG 27 2014

...OFFICIAL OBSERVATIONS...

CITY           SKY/WX    TMP DP  RH WIND       PRES   REMARKS
GOODLAND KS    CLOUDY    64  63  96 SE8       30.14F
HILL CITY KS   LGT RAIN  69  66  90 SW3       30.12R
IMPERIAL NEB   PTCLDY    62  61  96 SE9       30.11S
MCCOOK NEB     CLOUDY    67  65  93 SE7       30.12R
AKRON CO       MOCLDY    61  58  90 SE3       30.14S
BURLINGTON CO  MOCLDY    61  59  93 S5        30.15S
LIMON CO       MOCLDY    57  57 100 SE6       30.18S
$$

...UNOFFICIAL OBSERVATIONS...

CITY           SKY/WX    TMP DP  RH WIND       PRES   REMARKS
COLBY KS       CLOUDY    66  66 100 SE6       30.15S FOG
GOVE KS          N/A     68  32  26 CALM        N/A
NORTON KS      CLEAR     68  64  88 CALM      30.11R
SHARON SPRINGS   N/A     64  62  95 S8          N/A
WAKEENEY KS      N/A     69  67  91 MISG        N/A
KIT CARSON CO    N/A     62  59  91 MISG        N/A
YUMA CO          N/A     61  59  92 SE8         N/A
$$



USA.gov is the U.S. government's official web portal to all federal, state and local government web resources and services.